Regional Weather Roundup
Issued by NWS Wakefield, VA

Home | Current Version | Previous Version | Text Only | Print | Product List | Glossary Off
Versions: 1 2 3 4 5 6 7 8 9 10 11 12 13 14 15 16 17 18 19 20 21 22 23 24 25 26 27 28 29 30 31 32 33 34 35 36 37 38 39 40 41 42 43 44 45 46 47 48 49 50
000 ASUS41 KAKQ 221614 RWRAKQ REGIONAL WEATHER ROUNDUP NATIONAL WEATHER SERVICE WAKEFIELD VA 1100 AM EST TUE JAN 22 2019 Note: "fair" indicates few or no clouds below 12,000 feet with no significant weather and/or obstructions to visibility. * = Denotes station may not report precipitation (e.g., rain,snow,etc.), thunder or fog. VAZ042-051-052>054-056-221700- NORTHERN VIRGINIA CITY SKY/WX TMP DP RH WIND PRES REMARKS WASH NATIONAL FAIR 25 2 37 VRB3 30.76S DULLES FAIR 24 3 40 VRB3 30.73S FORT BELVOIR FAIR 26 -1 30 NE3 30.75S QUANTICO FAIR 24 9 52 S6 30.77S FREDERICKSBRG* FAIR 25 5 42 CALM 30.75F STAFFORD* FAIR 26 2 36 CALM 30.79S WARRENTON FAIR 26 -1 31 CALM 30.73S CULPEPER* FAIR 26 3 38 CALM 30.74S MANASSAS* FAIR 23 6 48 CALM 30.75S LEESBURG* FAIR 27 9 46 CALM 30.74S WINCHESTER PTSUNNY 19 5 53 SE3 30.70S FRONT ROYAL* PTSUNNY 23 1 39 E3 30.68S LURAY* CLOUDY 23 9 54 CALM 30.67S $$ VAZ048-049-060>072-079>083-221700- CENTRAL AND SOUTH CENTRAL VIRGINIA CITY SKY/WX TMP DP RH WIND PRES REMARKS RICHMOND FAIR 26 1 34 E5 30.75F CHESTERFIELD* FAIR 25 3 38 CALM 30.75F PETERSBURG* FAIR 27 0 30 E3 30.76S HANOVER FAIR 27 2 34 VRB6 30.76F TAPPAHANNOCK* FAIR 25 6 45 CALM 30.75F QUINTON* FAIR 25 2 37 N3 30.75S CHARLOTTSVILLE PTSUNNY 26 5 40 S3 30.71R GORDONSVILLE* CLOUDY 25 4 40 CALM 30.71F ORANGE* PTSUNNY 25 5 42 CALM 30.72F LOUISA* PTSUNNY 24 1 36 N3 30.76S BUMPASS* FAIR 25 2 38 CALM 30.73F FARMVILLE* FAIR 28 8 42 CALM 30.72F CREWE* FAIR 25 -4 29 CALM 30.73F FORT PICKETT* FAIR 27 0 30 N3 30.73F CHASE CITY* FAIR 27 0 31 CALM 30.72F CLARKSVILLE* FAIR 28 3 34 NE3 30.73F SOUTH HILL* FAIR 26 2 35 N5 30.79F LAWRENCEVILLE* FAIR 27 0 31 MISG 30.74S EMPORIA* FAIR 25 3 39 N5 30.77F $$ VAZ088>098-221700- SOUTHEAST VIRGINIA CITY SKY/WX TMP DP RH WIND PRES REMARKS NORFOLK FAIR 26 15 63 NW8 30.74S VIRGINIA BEACH FAIR 30 19 63 NW12 30.73F WCI 20 NORFOLK NAVAL FAIR 27 13 55 NW7 30.76F WEST POINT* FAIR 25 8 49 CALM 30.77F SALUDA* FAIR 24 10 55 NW5 30.75F NEWPORT NEWS FAIR 25 8 48 E5 30.75F LANGLEY AFB FAIR 26 11 52 N8 30.73F FORT EUSTIS FAIR 25 6 44 NW6 30.73F WILLIAMSBURG* FAIR 28 9 43 CALM 30.76F HR EXEC AP* FAIR 26 13 57 VRB5 30.76S FRANKLIN* FAIR 25 6 43 N6 30.77F US460-WAKEFLD FAIR 24 5 44 S3 30.75F $$ VAZ020-022-025-037-045-221700- WEST CENTRAL AND SOUTHWEST VIRGINIA CITY SKY/WX TMP DP RH WIND PRES REMARKS STAUNTON* FAIR 22 5 48 CALM 30.66F WAYNESBORO* FAIR 22 3 43 CALM 30.62F HOT SPRINGS VA FAIR 22 -4 32 S13G21 30.44R WCI 10 LYNCHBURG FAIR 25 2 37 VRB5 30.68F DANVILLE FAIR 26 1 34 VRB5 30.72R SOUTH BOSTON* FAIR 29 -1 27 NE6 30.73F MARTINSVILLE FAIR 28 4 35 CALM 30.72S ROANOKE FAIR 25 0 33 VRB3 30.68S BLACKSBURG FAIR 25 4 39 E5 30.60R DUBLIN* FAIR 26 10 51 CALM 30.57F MARION* FAIR 28 12 51 E9 30.52S HILLSVILLE* FAIR 23 -3 31 S6 30.51S RICHLANDS* FAIR 33 9 36 CALM 30.42R WISE* FAIR 36 10 35 S8 30.42S ABINGDON* FAIR 33 8 35 E10 30.47S WCI 24 $$ MDZ021>025-VAZ099-100-221700- SOUTHERN MARYLAND AND THE DELMARVA PENINSULA CITY SKY/WX TMP DP RH WIND PRES REMARKS PATUXENT RIVER FAIR 25 10 53 N7 30.75S BAY BRIDGE APT FAIR 21 7 53 N8 30.75S LEONARDTOWN FAIR 23 9 54 SE3 30.75S DOVER FAIR 24 3 40 NW3 30.72S GEORGETOWN FAIR 27 4 37 N6 30.73S EASTON SUNNY 25 3 39 CALM 30.77S CAMBRIDGE SUNNY 23 5 46 N6 30.74F SALISBURY FAIR 25 5 42 N6 30.72S TANGIER FAIR 27 12 54 NW9 30.74S OCEAN CITY FAIR 27 5 39 N8 30.73R WALLOPS ISLAND FAIR 28 2 32 N6 30.72F ACCOMACK* FAIR 27 10 49 NW6 30.73S $$ NCZ012>017-030>032-221700- NORTH CENTRAL AND EASTERN NORTH CAROLINA CITY SKY/WX TMP DP RH WIND PRES REMARKS ROANOKE RAPIDS FAIR 27 10 50 CALM 30.77R RALEIGH FAIR 28 2 32 E7 30.72F ELIZABETH CITY FAIR 29 13 51 N9 30.75R AHOSKIE* FAIR 24 4 42 CALM 30.77R EDENTON* FAIR 28 13 54 N6 30.77R CURRITUCK* FAIR 28 19 67 MISG 30.74R KILL DEVIL HLS PTSUNNY 31 21 66 N7 30.71R MANTEO PTSUNNY 30 21 69 N12G17 30.73R WCI 21 CAPE HATTERAS FAIR 39 24 55 VRB7G20 30.72R TARBORO* FAIR 25 4 40 NW3 30.77R GOLDSBORO FAIR 29 4 34 N6 30.73F WASHINGTON FAIR 28 8 42 N5 30.76R GREENVILLE FAIR 28 5 37 N5 30.75R NEW BERN FAIR 29 12 49 N8 30.75S WILMINGTON FAIR 34 7 32 N9 30.75R $$ VAZ048-221700- ELSEWHERE CITY SKY/WX TMP DP RH WIND PRES REMARKS HARRISBURG PA N/A N/A N/A N/A W5 30.71R BALTIMORE FAIR 25 4 40 CALM 30.73R ANNAPOLIS FAIR 26 6 42 CALM 30.74F ANDREWS AFB FAIR 23 1 38 CALM 30.72S PHILADELPHIA FAIR 22 1 40 N5 30.73R HENDERSON NC FAIR 26 0 32 E6 30.73S GREENSBORO FAIR 28 -1 28 CALM 30.67S ROCKY MOUNT FAIR 28 6 39 N8 30.76S $$ VAZ100-221700- MARINE STATION/POSITION TIME TEMP WIND PRES WAVE SWELL AIR SEA DIR/SP/G HT/PER HT/PER (UTC) (F) (DEG/KT/KT) (MB) (FT/S) (FT/S) BRANDYWINE LGT 1548 1040.8R CAPE MAY NJ 1548 22 33 340/ 9/ 11 1040.2R LEWES DE 1548 21 36 340/ 13/ 16 1040.7R 15NM E FENWICK I 1550 44 1039.9R 4/ 5 OCEAN-CITY-INLET 1548 22 39 350/ 9/ 11 1041.0R WACHAPREAGUE VA 1548 26 31 360/ 7/ 11 1039.9S THOMAS POINT MD 1600 20 36 330/ 5/ 6 1041.6F COVE POINT MD 1548 20 360/ 11/ 14 1041.7F SOLOMONS ISLAND 1548 23 37 350/ 3/ 5 1041.1F BISHOPS HEAD MD 1548 24 30/ 7/ 9 1040.9F PINEY POINT MD 1536 300/ 8/ 10 N/A CAMBRIDGE MD 1548 23 33 1040.7F LEWISETTA VA 1548 21 32 320/ 6/ 8 1041.5R RAPPAHANNOCK LGT 1548 10/ 11/ 14 1041.7R YORK RVR RNG VA 1548 23 360/ 7/ 8 1041.7F DOMINION TERM VA 1548 24 310/ 4/ 5 1041.7F KIPTOPEKE VA 1548 38 10/ 7/ 11 N/A CAPE HENRY VA 1548 26 320/ 13/ 16 1039.2R WILLOUBY STN VA 1548 23 340/ 6/ 8 1040.8F S CRANEY ISL VA 1548 24 10/ 4/ 9 1041.4R 1ST LANDING BUOY 1550 26 350/ 12/ 16 1040.6R 64NM E OF VA BCH 1550 32 48 360/ 14/ 16 1039.8R 6/ 7 5/ 7 DUCK PIER NC 1548 28 42 360/ 15/ 18 1039.8R 44100 DUCK FRF 1545 46 N/A 6/ 6 2/11 44056 DUCK FRF 1500 43 N/A 4/ 6 OREGON INLET NC 1536 32 38 340/ 10/ 16 1039.9R HATTERAS NC 1524 32 45 10/ 14/ 18 1039.4R CAPE LOOKOUT NC 1500 10/ 15/ 17 1040.2R $$

USA.gov is the U.S. government's official web portal to all federal, state and local government web resources and services.